TimePST,TemperatureF,Dew PointF,Humidity,Sea Level PressureIn,VisibilityMPH,Wind Direction,Wind SpeedMPH,Gust SpeedMPH,PrecipitationIn,Events,Conditions,WindDirDegrees,DateUTC
12:53 AM,37.9,21.9,53,30.17,10.0,Calm,Calm,-,N/A,,Clear,0,2014-01-22 08:53:00
1:53 AM,37.9,21.9,53,30.16,10.0,Calm,Calm,-,N/A,,Clear,0,2014-01-22 09:53:00
2:53 AM,37.0,23.0,57,30.16,10.0,ENE,3.5,-,N/A,,Clear,60,2014-01-22 10:53:00
3:53 AM,35.1,21.0,57,30.14,10.0,Calm,Calm,-,N/A,,Clear,0,2014-01-22 11:53:00
4:53 AM,35.1,21.0,57,30.14,10.0,Calm,Calm,-,N/A,,Clear,0,2014-01-22 12:53:00
5:53 AM,35.1,21.0,57,30.13,10.0,Calm,Calm,-,N/A,,Clear,0,2014-01-22 13:53:00
6:53 AM,35.1,21.9,59,30.13,10.0,East,3.5,-,N/A,,Clear,80,2014-01-22 14:53:00
7:53 AM,36.0,21.0,55,30.12,10.0,Calm,Calm,-,N/A,,Clear,0,2014-01-22 15:53:00
8:53 AM,41.0,24.1,51,30.12,10.0,Calm,Calm,-,N/A,,Clear,0,2014-01-22 16:53:00
9:53 AM,48.9,28.9,46,30.11,10.0,Calm,Calm,-,N/A,,Clear,0,2014-01-22 17:53:00
10:53 AM,57.9,26.1,30,30.09,10.0,Calm,Calm,-,N/A,,Clear,0,2014-01-22 18:53:00
11:53 AM,66.0,26.1,22,30.06,10.0,Calm,Calm,-,N/A,,Clear,0,2014-01-22 19:53:00
12:53 PM,71.1,18.0,13,30.02,10.0,WSW,4.6,-,N/A,,Clear,240,2014-01-22 20:53:00
1:53 PM,72.0,17.1,12,30.00,10.0,Calm,Calm,-,N/A,,Clear,0,2014-01-22 21:53:00
2:53 PM,73.9,17.1,12,29.98,10.0,West,3.5,-,N/A,,Clear,270,2014-01-22 22:53:00
3:53 PM,73.0,16.0,11,29.96,10.0,ESE,4.6,-,N/A,,Clear,120,2014-01-22 23:53:00
4:53 PM,69.1,19.0,15,29.95,10.0,NE,5.8,-,N/A,,Clear,50,2014-01-23 00:53:00
5:53 PM,62.1,21.9,21,29.95,10.0,Calm,Calm,-,N/A,,Clear,0,2014-01-23 01:53:00
6:53 PM,57.9,21.0,24,29.94,10.0,Calm,Calm,-,N/A,,Clear,0,2014-01-23 02:53:00
7:53 PM,52.0,21.9,31,29.94,10.0,ENE,4.6,-,N/A,,Clear,60,2014-01-23 03:53:00
8:53 PM,50.0,21.0,32,29.95,10.0,Calm,Calm,-,N/A,,Clear,0,2014-01-23 04:53:00
9:53 PM,48.9,21.0,33,29.94,10.0,East,3.5,-,N/A,,Clear,90,2014-01-23 05:53:00
10:53 PM,46.0,21.0,37,29.94,10.0,Calm,Calm,-,N/A,,Clear,0,2014-01-23 06:53:00
11:53 PM,44.1,24.1,45,29.92,10.0,Calm,Calm,-,N/A,,Clear,0,2014-01-23 07:53:00